Wind_Speed
3 3 4 3 3 2 1 1 2 2 2 1 2 2 2 2 3 3 3 3 4 4 4 4 4 3 3 4 4 5 5 5 5 5 5 6 6 5 6 6 6 6 6
4 5 5 4 3 2 1 1 2 2 2 2 2 2 3 3 3 3 4 3 4 4 4 4 4 4 4 4 5 5 5 4 4 5 6 6 6 6 6 6 6 6 6
5 5 5 4 4 4 3 3 3 4 3 3 3 2 3 4 5 5 5 4 4 4 5 5 5 5 5 5 5 5 6 6 6 6 6 7 7 7 7 7 7 6 6
5 4 4 3 4 5 5 5 4 4 4 4 4 4 4 4 5 6 6 5 5 5 5 6 6 6 6 6 6 7 7 7 7 7 7 8 7 8 8 7 7 7 7
4 3 3 4 5 6 6 7 6 5 5 5 5 5 5 5 6 6 6 6 6 6 6 6 7 7 7 7 7 8 9 9 8 8 8 8 8 8 8 8 8 8 8
4 4 4 4 5 6 7 7 7 6 6 6 6 6 6 6 7 7 7 7 7 7 7 7 7 8 8 8 8 9 9 9 9 9 9 9 9 9 9 9 9 8 9
5 5 5 5 6 6 6 6 5 5 5 6 5 6 6 6 7 7 7 7 8 8 8 8 8 9 9 9 9 9 9 9 9 9 10 10 10 10 10 10 9 9 9
6 6 6 6 6 6 5 4 4 5 5 6 6 6 6 7 7 8 8 8 8 9 9 8 9 9 10 10 10 10 10 10 10 10 10 10 11 11 11 11 11 10 10
6 6 6 6 6 6 4 4 4 5 6 6 7 7 7 8 8 8 8 9 9 9 9 10 10 10 10 10 10 11 11 11 11 11 11 10 10 10 10 10 10 10 10
7 7 6 6 7 6 5 4 5 6 6 7 8 9 9 9 9 8 9 9 8 9 10 11 11 12 11 11 11 11 11 11 11 11 11 11 10 10 9 9 10 10 9
7 7 7 6 6 7 6 6 6 7 7 8 8 9 10 10 10 9 9 9 9 10 10 10 11 11 11 11 11 12 12 12 12 11 11 11 10 11 10 10 10 10 10
7 7 7 7 7 7 7 7 8 8 8 8 9 10 10 10 11 11 10 10 11 11 10 9 9 10 10 10 10 10 11 11 11 11 11 10 10 10 10 11 11 11 12
8 8 8 7 7 7 8 8 8 9 9 10 10 10 10 10 11 11 11 11 11 11 11 10 10 10 10 10 10 10 10 10 11 10 10 11 11 11 11 11 11 12 13
8 8 8 8 8 8 8 9 9 9 9 9 10 10 10 11 11 11 10 11 11 11 11 12 12 12 12 12 12 12 12 12 11 11 11 12 12 12 12 12 12 13 13
9 8 8 9 9 9 8 9 10 10 9 9 10 10 11 11 12 12 12 11 11 11 11 11 12 13 13 13 13 13 12 13 12 13 13 13 12 13 13 12 13 14 14
9 9 9 9 10 10 10 10 10 10 10 10 11 11 11 11 12 12 12 12 12 13 13 13 13 13 13 14 13 12 12 14 13 13 13 13 13 13 13 13 13 14 14
9 9 9 10 10 10 10 10 10 10 10 10 11 11 12 12 12 12 12 12 12 13 13 14 14 15 15 15 14 13 13 14 13 13 13 13 13 13 13 13 14 14 14
10 10 10 10 11 11 11 10 10 10 11 11 12 12 12 12 12 13 13 13 13 13 14 14 14 14 15 15 15 15 14 14 14 14 14 14 14 14 14 14 15 15 15
10 10 10 11 11 11 11 11 11 11 11 12 12 12 12 12 13 13 13 13 14 14 14 14 14 15 15 15 15 15 15 15 15 15 15 16 16 16 16 15 15 16 16
10 10 10 11 12 11 12 12 12 12 12 12 12 13 12 13 13 14 14 14 15 15 15 15 15 15 16 16 16 16 15 16 16 17 17 17 17 17 17 17 17 17 17
11 11 11 12 12 12 13 12 13 13 13 13 13 13 13 13 13 14 14 14 15 15 15 16 16 16 15 16 16 16 16 16 16 17 17 17 17 17 18 18 18 18 17
12 12 13 13 13 13 13 14 14 14 13 13 13 13 13 13 13 14 15 15 15 16 16 15 16 16 16 16 17 17 17 17 17 17 17 18 18 18 18 19 18 18 18
13 13 13 14 14 14 14 14 14 14 14 14 14 14 14 14 14 15 15 16 16 16 16 16 16 17 17 17 17 17 17 17 17 17 18 18 18 18 18 18 18 17 16
14 14 14 14 14 14 14 15 15 15 15 15 15 15 14 14 15 15 16 16 17 17 17 17 17 18 18 18 18 18 18 17 17 17 18 19 20 19 19 18 17 17 16
15 15 15 15 14 15 15 15 16 16 16 16 16 15 15 15 16 16 16 17 17 17 18 18 18 18 19 19 19 19 18 18 18 19 19 19 20 20 19 19 18 18 18
16 16 16 15 15 15 15 16 16 16 16 17 17 16 16 16 16 17 17 18 18 17 18 18 19 19 19 19 19 19 19 19 19 19 20 20 20 20 19 19 19 19 19
Wind_Direction
280 271 263 250 240 239 242 238 228 217 214 204 209 229 229 231 229 236 237 230 231 235 245 254 262 257 258 251 256 265 265 270 274 268 265 262 272 276 275 284 284 284 281
284 268 256 252 242 244 248 246 242 230 225 224 227 233 238 243 244 243 243 243 245 250 256 258 258 261 267 266 258 258 261 262 267 269 269 272 272 272 277 284 284 283 278
296 279 254 246 251 257 262 265 256 249 237 235 240 249 249 250 248 248 244 246 253 260 265 265 263 265 268 271 267 270 277 279 280 272 268 267 268 272 276 280 282 282 281
309 291 252 248 261 267 271 267 262 254 248 247 252 261 262 259 257 258 256 257 258 264 275 271 266 268 266 276 274 274 276 280 282 280 282 275 273 276 277 278 281 280 284
303 294 270 271 274 282 279 271 260 254 253 253 257 260 263 263 261 262 265 265 266 270 277 278 273 275 272 272 274 275 276 279 280 282 282 282 275 279 284 284 284 283 285
288 288 280 278 282 290 287 272 259 253 255 257 258 259 267 269 267 269 272 269 272 276 280 284 284 282 277 273 274 275 276 278 279 281 279 280 280 281 283 282 279 277 279
281 280 280 285 289 296 298 282 259 248 256 257 263 272 273 276 273 274 275 275 276 278 280 284 284 282 278 278 279 277 278 279 280 281 280 280 280 281 281 280 278 279 278
280 278 280 289 294 300 303 286 256 251 258 260 264 272 277 280 281 275 278 280 277 278 277 282 285 286 288 285 281 278 277 277 279 279 280 282 283 281 280 277 277 277 277
281 279 281 286 292 296 296 281 263 263 264 268 270 270 275 282 289 283 281 282 280 280 280 280 283 285 286 286 284 280 277 276 276 278 281 283 283 282 280 273 272 276 279
278 280 282 287 286 286 284 277 270 269 270 273 278 278 279 280 284 286 281 280 276 274 277 279 281 282 283 283 282 282 281 281 279 281 281 280 279 276 272 270 272 274 280
278 278 280 284 283 279 279 277 276 276 274 276 281 284 284 285 285 287 286 281 278 278 277 278 278 280 282 283 283 283 281 279 280 281 279 277 277 275 269 268 272 276 277
278 279 278 278 280 280 278 277 280 282 283 284 284 287 284 285 288 289 287 285 284 283 282 280 278 278 281 284 285 285 282 281 283 283 283 284 282 278 274 274 273 273 274
276 278 281 280 283 284 282 282 282 282 284 286 286 286 286 286 288 291 289 288 287 285 284 285 286 284 286 285 285 287 286 286 287 284 285 289 286 283 281 276 273 275 277
275 275 279 279 281 285 286 285 285 287 286 287 287 289 289 286 286 289 289 287 287 286 286 287 289 289 288 286 287 292 292 292 292 288 286 286 286 286 283 278 277 280 281
276 276 278 278 280 283 284 284 287 286 283 283 285 288 289 290 290 288 287 290 287 287 286 287 286 288 288 287 288 290 289 291 293 290 290 290 289 289 287 287 288 285 283
276 274 275 275 278 281 283 286 284 282 282 285 286 287 290 292 292 292 292 292 292 291 288 288 287 285 285 286 285 287 287 288 290 291 289 289 288 287 286 287 291 292 291
278 276 274 275 277 279 281 283 284 284 284 284 286 290 292 291 292 294 295 296 295 294 293 293 292 290 288 286 287 287 287 287 289 288 288 289 289 288 288 288 289 290 290
281 281 279 277 276 278 280 283 285 288 286 285 287 290 291 292 292 293 295 296 296 296 295 295 293 291 289 287 287 287 285 283 283 286 287 288 289 289 288 288 288 288 288
281 282 281 278 277 280 282 284 285 287 288 288 290 290 289 289 290 291 291 293 296 297 297 296 296 295 291 288 285 283 282 282 282 283 285 286 287 286 285 284 286 288 287
280 280 282 282 281 282 284 285 285 286 287 289 290 290 291 290 289 290 290 293 297 299 299 301 300 297 293 290 286 283 280 279 281 282 284 286 286 286 285 283 283 285 285
280 280 281 283 283 282 282 283 285 286 289 290 290 290 292 292 292 293 292 293 297 300 300 299 298 297 295 292 290 287 283 280 280 281 282 284 284 284 283 282 283 283 282
280 280 280 283 283 282 282 283 285 287 291 292 291 288 290 291 292 294 296 295 297 297 297 296 296 297 296 294 292 290 287 281 279 279 281 283 284 284 283 283 281 281 281
278 280 281 283 284 282 281 284 287 289 290 288 288 287 289 291 293 294 296 297 297 295 294 295 296 295 296 295 293 292 288 281 279 280 282 283 284 285 285 283 281 279 280
277 279 281 282 282 282 282 284 286 287 288 288 287 287 288 290 293 295 297 298 296 295 295 294 295 294 293 293 292 291 289 286 284 282 283 283 283 283 284 283 280 279 278
277 279 281 281 281 282 282 284 286 287 287 288 288 288 289 290 292 295 297 297 296 295 294 295 294 293 292 291 290 288 287 286 286 286 285 283 281 281 280 280 278 279 277
276 279 281 281 281 280 282 283 285 287 287 287 287 288 289 290 293 295 297 297 296 294 294 295 294 293 292 291 290 288 286 284 285 287 285 284 283 281 280 278 277 277 278
Height
5863 5863 5863 5863 5864 5865 5865 5865 5866 5866 5866 5866 5866 5867 5867 5867 5867 5867 5868 5868 5868 5868 5868 5868 5868 5867 5867 5867 5868 5868 5868 5869 5869 5868 5869 5869 5869 5869 5870 5870 5870 5870 5870
5861 5859 5860 5862 5863 5864 5864 5865 5865 5866 5866 5866 5866 5867 5867 5867 5867 5867 5867 5867 5868 5868 5868 5868 5868 5868 5868 5868 5868 5868 5868 5868 5867 5867 5868 5868 5868 5869 5869 5869 5869 5869 5869
5857 5854 5856 5859 5862 5863 5864 5864 5865 5865 5865 5866 5866 5866 5867 5867 5867 5867 5867 5867 5867 5867 5867 5868 5868 5867 5867 5867 5867 5868 5867 5867 5867 5867 5867 5867 5867 5868 5868 5868 5869 5869 5869
5856 5853 5855 5858 5861 5862 5863 5863 5863 5864 5864 5865 5865 5866 5866 5866 5866 5866 5866 5866 5866 5867 5867 5867 5867 5867 5867 5867 5867 5867 5867 5866 5866 5867 5867 5867 5867 5866 5867 5867 5867 5867 5868
5858 5857 5858 5860 5861 5861 5861 5860 5861 5862 5863 5864 5864 5865 5865 5865 5866 5866 5866 5866 5866 5866 5866 5866 5866 5865 5866 5866 5866 5866 5865 5865 5865 5865 5865 5865 5865 5865 5865 5866 5866 5866 5866
5860 5860 5860 5860 5860 5859 5857 5855 5856 5860 5861 5863 5863 5864 5864 5864 5865 5865 5865 5865 5865 5865 5865 5865 5865 5864 5864 5864 5864 5864 5864 5864 5864 5864 5864 5864 5864 5864 5864 5864 5864 5865 5865
5861 5861 5861 5860 5860 5858 5854 5851 5853 5857 5860 5861 5862 5863 5863 5863 5864 5864 5864 5863 5864 5864 5864 5864 5863 5863 5863 5863 5863 5863 5863 5862 5862 5862 5862 5862 5862 5862 5862 5862 5863 5863 5863
5861 5861 5860 5860 5859 5858 5855 5853 5854 5857 5860 5861 5861 5862 5862 5862 5862 5862 5862 5862 5862 5862 5862 5862 5862 5862 5862 5862 5861 5861 5861 5861 5860 5860 5860 5861 5861 5860 5860 5860 5860 5861 5861
5860 5860 5860 5860 5859 5859 5857 5857 5857 5859 5860 5860 5860 5861 5861 5861 5861 5861 5861 5861 5861 5861 5861 5861 5860 5860 5860 5860 5860 5859 5859 5859 5859 5858 5859 5859 5858 5858 5857 5857 5858 5858 5858
5859 5860 5860 5859 5859 5859 5858 5858 5858 5859 5859 5859 5860 5860 5860 5860 5860 5859 5859 5859 5859 5859 5859 5859 5859 5858 5858 5858 5858 5858 5857 5857 5857 5856 5857 5857 5857 5856 5855 5855 5856 5856 5856
5859 5859 5859 5859 5858 5858 5858 5858 5858 5858 5858 5859 5859 5859 5858 5858 5858 5858 5858 5857 5857 5857 5857 5857 5856 5856 5856 5856 5856 5856 5855 5855 5855 5854 5854 5854 5854 5854 5854 5854 5854 5854 5854
5858 5858 5858 5858 5858 5857 5858 5857 5857 5857 5857 5857 5857 5857 5857 5857 5856 5856 5856 5856 5855 5855 5855 5855 5854 5854 5854 5854 5854 5853 5853 5853 5853 5852 5852 5852 5852 5852 5852 5852 5852 5852 5852
5857 5857 5857 5857 5857 5857 5856 5856 5856 5856 5856 5856 5856 5855 5855 5855 5855 5854 5854 5854 5853 5853 5853 5852 5852 5852 5852 5852 5852 5851 5851 5851 5851 5850 5850 5850 5850 5850 5849 5849 5849 5849 5849
5856 5855 5855 5855 5855 5855 5855 5855 5855 5855 5854 5854 5854 5853 5853 5853 5853 5853 5852 5852 5852 5851 5851 5850 5850 5850 5850 5849 5849 5849 5849 5848 5848 5848 5848 5848 5847 5847 5847 5847 5847 5847 5847
5854 5854 5854 5854 5854 5854 5853 5853 5853 5853 5853 5852 5852 5851 5851 5851 5851 5850 5850 5850 5849 5849 5848 5848 5848 5847 5847 5847 5847 5846 5846 5846 5846 5845 5845 5845 5845 5845 5844 5844 5844 5844 5844
5853 5853 5853 5853 5852 5852 5852 5852 5851 5851 5851 5850 5850 5850 5849 5849 5848 5848 5848 5847 5847 5846 5846 5845 5845 5845 5844 5844 5844 5844 5844 5843 5843 5843 5842 5842 5842 5842 5841 5841 5841 5841 5840
5851 5851 5851 5851 5851 5850 5850 5850 5850 5849 5849 5849 5848 5848 5847 5847 5846 5846 5846 5845 5844 5844 5843 5842 5842 5842 5841 5841 5841 5841 5841 5840 5840 5840 5840 5839 5839 5838 5838 5838 5838 5838 5838
5849 5849 5849 5849 5849 5849 5848 5848 5848 5847 5847 5847 5846 5846 5845 5845 5844 5844 5843 5842 5842 5841 5840 5840 5839 5839 5838 5838 5837 5837 5837 5837 5837 5837 5837 5836 5836 5835 5835 5835 5835 5835 5834
5847 5847 5847 5847 5847 5847 5846 5846 5846 5845 5845 5845 5844 5844 5843 5842 5842 5841 5841 5840 5839 5838 5837 5836 5836 5835 5834 5833 5833 5833 5833 5833 5833 5833 5833 5833 5832 5832 5832 5832 5831 5831 5831
5845 5845 5845 5845 5845 5845 5844 5844 5844 5843 5843 5842 5842 5841 5841 5840 5839 5838 5838 5837 5836 5835 5834 5833 5832 5831 5830 5829 5829 5828 5828 5829 5829 5829 5829 5829 5829 5828 5828 5828 5827 5827 5827
5843 5843 5843 5843 5842 5842 5842 5842 5841 5841 5840 5840 5839 5838 5838 5837 5836 5836 5835 5834 5833 5832 5830 5829 5828 5827 5826 5825 5825 5824 5824 5824 5825 5825 5825 5825 5824 5824 5823 5823 5823 5823 5822
5841 5841 5841 5840 5840 5840 5840 5839 5839 5838 5838 5837 5836 5836 5835 5834 5833 5833 5831 5831 5829 5828 5827 5826 5825 5823 5822 5821 5821 5820 5820 5821 5820 5820 5820 5820 5820 5819 5819 5818 5818 5818 5818
5838 5838 5838 5838 5837 5837 5837 5836 5836 5835 5834 5834 5833 5832 5832 5831 5830 5829 5828 5827 5826 5825 5823 5822 5821 5820 5819 5818 5817 5816 5816 5816 5816 5816 5815 5815 5815 5814 5813 5813 5813 5813 5813
5835 5835 5835 5835 5834 5834 5834 5833 5833 5832 5831 5830 5830 5829 5828 5828 5826 5825 5824 5823 5822 5821 5820 5818 5817 5816 5815 5814 5813 5812 5811 5811 5811 5811 5811 5809 5809 5809 5808 5808 5808 5808 5808
5832 5832 5832 5831 5831 5831 5830 5830 5829 5828 5828 5827 5826 5825 5825 5824 5823 5821 5820 5819 5818 5817 5816 5814 5813 5812 5811 5810 5809 5808 5806 5806 5805 5805 5805 5804 5804 5803 5803 5803 5803 5803 5802
5829 5829 5828 5828 5828 5826 5826 5826 5826 5825 5824 5823 5822 5821 5821 5820 5819 5818 5816 5815 5814 5813 5812 5810 5809 5808 5807 5805 5804 5803 5802 5801 5800 5799 5799 5798 5798 5798 5797 5797 5797 5797 5797